Regional Weather Roundup
Issued by NWS Goodland, KS

Home | Current Version | Previous Version | Text Only | Print | Product List | Glossary Off
Versions: 1 2 3 4 5 6 7 8 9 10 11 12 13 14 15 16 17 18 19 20 21 22 23 24 25 26 27 28 29 30 31 32 33 34 35 36 37 38 39 40 41 42 43 44 45 46 47 48 49 50

000
ASUS43 KGLD 240008
RWRGLD

GOODLAND FORECAST AREA HOURLY WEATHER ROUNDUP
NATIONAL WEATHER SERVICE GOODLAND KS
600 PM MDT WED APR 23 2014

...OFFICIAL OBSERVATIONS...

CITY           SKY/WX    TMP DP  RH WIND       PRES   REMARKS
GOODLAND KS    PTSUNNY   73  39  29 N16       29.51S
HILL CITY KS   CLOUDY    78  50  37 S25G39    29.42F
IMPERIAL NEB   PTSUNNY   71  24  17 N26G36    29.54F
MCCOOK NEB     MOSUNNY   76  39  26 N16       29.47S
AKRON CO       LGT RAIN  48  39  71 NW20G33   29.72R
BURLINGTON CO  CLOUDY    72  36  26 NE24G31   29.53R
LIMON CO       CLOUDY    51  35  54 N44G56    29.64R
$$

...UNOFFICIAL OBSERVATIONS...

CITY           SKY/WX    TMP DP  RH WIND       PRES   REMARKS
COLBY KS       MOSUNNY   73  50  43 N16G26    29.47F
LENORA KS        N/A     62  32  32 SE18        N/A
LEOTI KS         N/A     84  32  15 S20         N/A
NORTON KS      LGT RAIN  66  52  59 SW7G20    29.48R
SHARON SPRINGS   N/A     80  45  28 CALM        N/A
WAKEENEY KS      N/A     79  45  29 MISG        N/A
TRENTON NEB      N/A     76  32  20 N18         N/A
KIT CARSON CO    N/A     78  38  23 MISG        N/A
$$



USA.gov is the U.S. government's official web portal to all federal, state and local government web resources and services.